Vorticity
9 8 6 1 -2 4 9 8 2 8 5 7 6 6 8 4 8 5 7 5 5 6 6 6 4 5 5 4 6 5 5 5 5 3 4 4 2 3 5 3 5 5 8 6 12 14 6 3 3
9 9 7 6 -2 4 10 5 8 7 6 5 5 6 6 2 3 4 5 5 5 6 5 4 4 6 4 6 6 6 6 6 6 6 5 4 5 5 3 4 6 5 7 7 6 17 10 5 5
9 9 7 -1 9 7 6 15 7 6 6 5 6 4 4 6 3 4 4 5 4 5 4 4 5 6 6 7 6 6 6 6 7 6 5 5 5 5 5 6 3 4 5 9 12 6 15 11 7
10 9 3 -5 -0 -1 5 14 6 6 6 5 5 2 3 5 4 5 5 5 4 5 5 5 5 6 8 7 6 6 7 6 6 6 6 6 6 6 5 5 4 3 4 5 9 14 7 13 10
8 8 -3 2 5 8 10 11 6 5 6 5 4 1 4 6 3 4 5 4 4 5 5 6 6 7 7 7 6 6 6 6 6 7 6 6 7 7 6 6 4 4 3 3 5 9 14 11 10
8 4 3 11 10 9 10 8 5 5 5 5 5 4 3 6 4 5 5 4 4 5 6 7 7 6 6 6 6 6 6 6 6 7 7 7 8 7 7 7 7 6 4 3 3 5 10 14 8
6 2 -2 -1 1 7 10 7 5 5 5 4 2 7 9 3 5 4 4 5 5 6 6 6 6 5 6 7 7 7 6 6 6 6 7 8 8 8 7 8 9 8 7 4 2 4 6 11 13
7 7 4 6 8 10 12 7 6 5 3 7 5 13 5 4 6 4 5 5 6 6 6 6 5 7 7 6 5 6 5 5 5 5 6 7 8 8 7 6 6 9 10 8 4 3 5 10 15
7 7 6 8 11 8 9 10 6 6 5 7 6 2 4 5 5 4 5 5 5 5 5 6 7 6 5 5 5 5 5 5 5 6 6 6 6 5 6 8 6 7 8 10 9 5 3 7 15
8 6 10 10 10 8 10 11 8 6 6 5 6 7 6 6 5 5 5 5 5 5 5 5 3 5 5 5 4 5 5 6 6 5 6 7 6 5 4 4 7 8 8 9 10 11 4 3 11
7 7 8 7 8 10 8 7 6 6 6 6 6 5 8 7 6 5 5 5 5 5 4 3 5 5 6 7 7 8 7 7 7 6 5 4 7 7 6 5 6 6 6 7 8 9 9 5 3
9 10 11 10 11 9 7 7 7 6 6 2 7 6 11 8 6 5 6 6 6 5 3 4 6 5 4 5 6 6 5 4 2 1 0 2 10 12 12 10 9 8 9 11 12 10 10 9 7
11 12 12 10 9 8 7 5 3 9 4 5 7 8 12 8 7 7 6 6 6 4 3 5 4 2 4 6 10 13 10 6 9 13 11 10 11 7 7 8 7 6 6 5 6 8 14 13 8
8 9 9 8 7 7 8 6 6 7 5 6 7 14 11 10 6 6 6 7 4 4 3 3 2 3 3 4 6 9 8 11 8 7 9 9 8 5 6 6 6 6 6 10 10 13 10 11 16
6 8 8 7 6 8 4 6 13 12 15 17 14 10 11 8 9 6 6 5 3 2 1 3 2 0 2 5 9 12 6 9 9 7 6 9 6 5 5 7 8 8 7 6 6 7 10 7 9
11 17 11 2 0 3 13 -2 8 18 19 14 10 8 10 8 7 7 7 4 3 1 1 1 0 2 5 4 5 8 11 11 9 6 7 8 7 5 6 8 5 4 5 3 2 3 2 1 7
6 2 4 12 5 3 5 4 -7 13 -1 2 8 5 11 9 5 8 7 3 3 2 1 1 2 4 2 4 7 6 11 11 8 7 7 7 7 7 7 7 5 4 4 4 3 3 3 6 7
-6 3 0 8 6 2 6 4 24 4 6 12 11 9 9 2 4 10 6 3 2 1 1 1 2 0 0 1 12 12 8 12 8 8 6 6 7 7 8 6 5 4 3 3 3 3 2 1 11
2 3 10 13 21 1 -2 7 11 18 17 12 12 11 11 7 9 9 5 2 2 2 1 0 1 -1 0 0 -1 7 8 12 11 8 7 6 7 8 9 8 6 5 3 5 1 2 4 8 12
2 10 12 24 -20 9 10 16 25 21 19 19 20 17 19 16 17 11 5 3 3 2 1 0 1 -1 0 1 -0 -3 5 11 10 8 7 8 8 8 10 9 7 5 3 3 0 2 6 13 14
1 21 6 -4 7 15 32 47 24 23 25 23 23 16 8 24 18 12 7 3 3 3 2 0 1 1 1 2 0 1 0 8 10 11 8 6 7 9 9 8 7 6 5 5 5 6 8 15 15
26 11 -4 7 29 1 -1 -1 14 14 12 13 11 14 16 14 15 11 5 3 4 5 1 1 2 3 0 4 4 3 5 4 9 10 11 8 7 8 10 9 8 7 5 5 7 10 12 16 14
-2 14 9 18 28 24 13 19 1 12 23 10 9 8 12 13 13 11 6 4 5 5 1 1 3 4 4 1 5 5 8 12 10 8 9 10 9 8 10 10 8 7 6 7 8 12 12 14 12
5 18 32 23 24 15 6 8 10 15 17 18 10 11 13 13 13 13 6 4 9 2 2 4 2 -1 3 2 4 6 7 9 7 8 11 11 10 9 7 10 10 9 7 8 10 12 11 13 13
9 7 16 13 13 4 -5 41 -14 -5 16 11 13 10 14 15 15 12 8 9 5 3 2 -1 -3 -0 -1 5 6 8 8 9 10 11 11 11 10 11 9 9 10 11 9 9 12 12 11 13 14
45 9 10 14 9 -8 17 15 5 -11 -4 9 14 14 12 13 12 9 7 5 2 2 -1 -3 -1 6 5 10 10 8 9 10 11 11 11 11 10 9 9 7 9 11 10 9 12 12 10 12 12
-4 12 2 6 22 15 6 13 -3 29 9 14 16 17 15 13 11 8 5 4 3 2 -0 -1 3 -6 7 11 3 3 10 12 10 10 10 10 8 8 9 9 9 9 11 9 12 13 9 11 11
10 17 3 17 10 13 6 6 5 8 15 5 -20 7 12 16 14 10 7 5 2 1 6 3 3 -3 17 3 0 10 11 12 10 12 12 9 7 8 8 8 8 8 6 10 10 14 12 10 12
9 11 12 8 5 3 7 7 -6 -24 -15 -11 33 14 9 13 17 12 8 4 4 -10 2 6 1 22 8 -0 8 11 11 11 10 11 10 7 7 6 6 6 6 5 4 5 6 11 13 12 12
18 20 5 -5 6 -4 -9 3 57 22 2 12 -15 -27 -14 1 -5 2 8 3 6 3 0 15 16 12 4 3 9 10 11 11 11 12 12 10 8 6 6 6 5 4 3 3 3 6 13 13 13
Height
3157 3158 3159 3161 3165 3161 3159 3158 3157 3157 3157 3157 3157 3158 3158 3158 3158 3163 3157 3156 3155 3154 3154 3153 3152 3152 3151 3149 3148 3147 3146 3145 3143 3142 3141 3139 3138 3137 3136 3136 3134 3133 3133 3131 3130 3130 3131 3131 3131
3158 3158 3160 3160 3163 3160 3158 3157 3157 3156 3156 3156 3156 3156 3156 3157 3156 3156 3156 3155 3154 3153 3152 3151 3150 3150 3149 3148 3147 3146 3145 3143 3143 3141 3140 3138 3137 3136 3135 3134 3133 3132 3130 3129 3129 3127 3127 3127 3128
3158 3158 3160 3160 3159 3158 3157 3155 3155 3155 3155 3155 3155 3155 3155 3155 3155 3155 3154 3153 3153 3152 3150 3149 3148 3149 3148 3147 3146 3144 3143 3141 3141 3139 3137 3136 3135 3133 3132 3131 3130 3129 3128 3126 3126 3125 3124 3124 3124
3157 3158 3160 3158 3158 3156 3155 3154 3154 3154 3154 3154 3154 3155 3155 3154 3154 3154 3154 3152 3152 3151 3150 3148 3148 3147 3147 3146 3144 3143 3142 3140 3138 3137 3135 3134 3132 3130 3129 3128 3127 3125 3125 3123 3122 3121 3121 3120 3120
3157 3157 3157 3155 3155 3154 3153 3152 3152 3152 3153 3153 3153 3153 3153 3153 3153 3153 3152 3151 3150 3150 3149 3148 3147 3146 3145 3145 3143 3142 3139 3138 3136 3135 3133 3131 3130 3128 3125 3125 3124 3122 3121 3120 3118 3118 3116 3117 3116
3156 3156 3156 3155 3152 3152 3151 3150 3150 3151 3151 3152 3152 3152 3152 3151 3151 3151 3151 3150 3149 3149 3148 3147 3146 3146 3144 3143 3141 3140 3137 3136 3134 3132 3130 3129 3129 3126 3123 3121 3120 3119 3118 3117 3115 3114 3112 3112 3112
3154 3154 3153 3152 3151 3150 3149 3149 3149 3149 3150 3150 3151 3150 3150 3149 3149 3149 3149 3149 3148 3147 3147 3146 3145 3144 3142 3140 3139 3137 3135 3133 3131 3129 3127 3126 3125 3123 3121 3119 3118 3116 3115 3114 3113 3111 3109 3108 3108
3152 3152 3150 3149 3149 3148 3147 3147 3148 3148 3148 3149 3149 3148 3148 3147 3147 3146 3147 3147 3146 3145 3145 3144 3143 3141 3140 3138 3136 3135 3133 3131 3129 3127 3125 3123 3121 3119 3117 3116 3115 3113 3112 3111 3110 3108 3107 3105 3104
3150 3150 3148 3147 3146 3145 3145 3145 3145 3146 3146 3146 3146 3146 3146 3144 3144 3144 3144 3144 3144 3143 3142 3142 3141 3139 3137 3136 3134 3132 3130 3128 3126 3125 3123 3122 3119 3117 3114 3113 3112 3110 3108 3107 3105 3104 3104 3102 3100
3147 3147 3145 3145 3144 3143 3143 3143 3143 3144 3143 3143 3143 3143 3142 3141 3141 3141 3141 3141 3141 3141 3140 3139 3138 3136 3135 3133 3131 3129 3127 3125 3122 3120 3119 3117 3115 3113 3110 3109 3108 3106 3105 3104 3103 3101 3099 3098 3097
3144 3143 3143 3142 3141 3141 3140 3140 3140 3140 3141 3141 3140 3139 3139 3138 3138 3138 3139 3138 3138 3138 3137 3136 3135 3133 3132 3130 3128 3125 3122 3120 3118 3117 3115 3113 3112 3109 3107 3105 3103 3102 3100 3099 3098 3097 3095 3093 3093
3142 3141 3140 3139 3139 3138 3138 3137 3137 3137 3137 3137 3136 3135 3135 3135 3135 3135 3135 3135 3135 3135 3134 3133 3132 3131 3129 3128 3126 3123 3120 3119 3116 3113 3110 3109 3107 3105 3103 3100 3098 3095 3095 3094 3094 3093 3091 3089 3088
3140 3139 3138 3137 3136 3136 3135 3134 3133 3134 3132 3132 3131 3131 3130 3131 3131 3131 3132 3132 3132 3132 3131 3130 3130 3129 3127 3126 3124 3121 3119 3115 3113 3111 3109 3107 3104 3102 3099 3096 3093 3091 3090 3089 3087 3086 3087 3085 3083
3139 3137 3136 3135 3134 3133 3132 3130 3128 3129 3128 3127 3126 3126 3126 3126 3127 3128 3129 3129 3129 3129 3128 3128 3128 3127 3125 3123 3120 3117 3114 3111 3109 3108 3105 3103 3100 3098 3096 3094 3091 3088 3085 3084 3082 3081 3079 3079 3078
3138 3136 3134 3133 3132 3130 3128 3126 3124 3123 3122 3121 3121 3120 3121 3121 3123 3123 3124 3125 3125 3125 3125 3125 3125 3124 3122 3120 3116 3114 3110 3107 3105 3103 3101 3098 3095 3093 3091 3090 3088 3086 3084 3081 3079 3077 3075 3072 3072
3136 3135 3133 3131 3129 3127 3126 3121 3120 3118 3117 3116 3116 3116 3116 3117 3118 3119 3120 3120 3121 3122 3122 3122 3121 3121 3118 3116 3114 3111 3108 3106 3102 3099 3096 3094 3091 3089 3087 3085 3083 3081 3079 3077 3074 3071 3070 3068 3065
3135 3134 3131 3128 3125 3122 3121 3115 3115 3113 3111 3111 3111 3111 3111 3112 3112 3114 3115 3116 3117 3118 3118 3117 3118 3117 3117 3115 3112 3109 3106 3102 3099 3096 3093 3090 3087 3085 3082 3080 3078 3076 3073 3070 3067 3064 3060 3058 3057
3135 3131 3127 3124 3120 3117 3114 3108 3110 3106 3104 3104 3103 3104 3104 3105 3106 3108 3109 3111 3112 3113 3113 3114 3115 3115 3113 3111 3108 3104 3101 3097 3094 3091 3089 3086 3082 3079 3077 3075 3073 3071 3067 3063 3059 3055 3053 3048 3044
3132 3128 3123 3119 3115 3109 3106 3101 3102 3098 3094 3095 3095 3096 3097 3099 3100 3102 3103 3106 3107 3108 3109 3109 3109 3109 3108 3106 3104 3102 3098 3095 3091 3087 3084 3081 3077 3074 3071 3069 3067 3065 3062 3057 3052 3046 3043 3041 3034
3129 3124 3119 3115 3111 3105 3097 3089 3089 3087 3086 3085 3086 3088 3090 3091 3092 3095 3098 3100 3101 3103 3104 3104 3104 3104 3103 3101 3098 3096 3093 3090 3086 3082 3078 3076 3072 3069 3066 3063 3061 3058 3055 3051 3046 3040 3034 3031 3027
3126 3121 3116 3112 3103 3098 3091 3081 3079 3079 3078 3079 3080 3082 3084 3085 3088 3090 3092 3094 3096 3099 3099 3099 3099 3098 3096 3095 3093 3090 3088 3085 3082 3077 3072 3069 3066 3063 3060 3056 3053 3050 3046 3042 3038 3032 3027 3022 3020
3121 3117 3113 3106 3101 3098 3094 3087 3079 3076 3076 3077 3078 3080 3081 3082 3083 3085 3088 3089 3092 3094 3095 3094 3093 3092 3090 3088 3085 3082 3080 3077 3075 3072 3068 3063 3058 3055 3053 3049 3045 3041 3038 3033 3028 3023 3019 3014 3011
3122 3114 3108 3101 3096 3094 3091 3091 3076 3074 3074 3075 3077 3078 3078 3079 3081 3083 3084 3086 3089 3090 3090 3089 3086 3085 3083 3080 3077 3074 3072 3070 3067 3064 3061 3057 3053 3049 3045 3041 3036 3032 3028 3024 3019 3014 3010 3006 3003
3118 3112 3103 3097 3094 3092 3089 3090 3077 3075 3074 3074 3075 3076 3076 3077 3078 3080 3082 3084 3086 3086 3084 3083 3082 3079 3076 3072 3070 3067 3064 3062 3059 3055 3053 3049 3044 3040 3035 3032 3028 3023 3020 3015 3011 3006 3001 2998 2995
3116 3111 3105 3098 3094 3090 3089 3087 3076 3074 3073 3074 3074 3074 3075 3075 3076 3077 3079 3080 3081 3080 3079 3077 3075 3072 3069 3066 3063 3060 3057 3054 3050 3046 3043 3040 3036 3031 3027 3023 3020 3016 3012 3007 3002 2997 2993 2990 2988
3114 3114 3114 3109 3098 3094 3088 3082 3076 3073 3073 3072 3071 3072 3072 3073 3073 3074 3075 3076 3075 3074 3073 3071 3068 3065 3062 3058 3054 3051 3048 3044 3040 3036 3033 3030 3026 3023 3018 3015 3011 3007 3003 2998 2994 2990 2986 2983 2981
3112 3113 3112 3109 3103 3101 3086 3079 3075 3071 3069 3069 3069 3070 3070 3071 3071 3071 3071 3070 3069 3068 3066 3064 3061 3057 3053 3050 3046 3042 3038 3035 3031 3028 3024 3022 3018 3013 3010 3006 3003 2999 2994 2990 2986 2982 2978 2976 2974
3111 3110 3108 3106 3102 3093 3081 3079 3074 3070 3069 3068 3068 3068 3068 3068 3067 3067 3065 3064 3062 3061 3059 3055 3052 3048 3044 3041 3038 3035 3030 3025 3022 3019 3015 3012 3009 3005 3001 2998 2994 2990 2985 2982 2978 2975 2971 2969 2967
3107 3105 3105 3105 3102 3096 3084 3076 3073 3070 3067 3065 3065 3064 3065 3064 3063 3060 3059 3057 3055 3052 3049 3045 3041 3038 3035 3032 3028 3025 3022 3017 3013 3009 3006 3003 3000 2996 2993 2989 2985 2981 2977 2973 2970 2966 2963 2961 2959
3101 3101 3101 3101 3096 3092 3085 3067 3066 3065 3064 3062 3062 3062 3060 3059 3056 3053 3051 3049 3046 3042 3039 3035 3031 3028 3024 3021 3018 3015 3011 3007 3004 3001 2997 2993 2990 2987 2983 2979 2975 2971 2968 2964 2961 2958 2955 2952 2950